TimeEST,TemperatureF,Dew PointF,Humidity,Sea Level PressureIn,VisibilityMPH,Wind Direction,Wind SpeedMPH,Gust SpeedMPH,PrecipitationIn,Events,Conditions,WindDirDegrees,DateUTC
12:54 AM,37.9,19.9,48,30.47,10.0,Variable,3.5,18.4,N/A,,Clear,0,2012-03-07 05:54:00
1:54 AM,36.0,21.0,55,30.47,10.0,Variable,3.5,-,N/A,,Clear,0,2012-03-07 06:54:00
2:54 AM,35.1,21.9,59,30.46,10.0,Variable,4.6,-,N/A,,Clear,0,2012-03-07 07:54:00
3:54 AM,33.1,23.0,66,30.47,10.0,Calm,Calm,-,N/A,,Clear,0,2012-03-07 08:54:00
4:54 AM,32.0,21.9,66,30.47,10.0,SE,10.4,16.1,N/A,,Clear,140,2012-03-07 09:54:00
5:54 AM,30.9,23.0,72,30.48,10.0,East,5.8,-,N/A,,Clear,100,2012-03-07 10:54:00
6:54 AM,30.9,23.0,72,30.49,10.0,ESE,8.1,-,N/A,,Clear,110,2012-03-07 11:54:00
7:54 AM,33.1,25.0,72,30.49,10.0,ESE,8.1,-,N/A,,Clear,110,2012-03-07 12:54:00
8:54 AM,39.9,26.1,58,30.48,10.0,ESE,4.6,-,N/A,,Clear,110,2012-03-07 13:54:00
9:54 AM,44.1,25.0,47,30.46,10.0,East,5.8,-,N/A,,Clear,100,2012-03-07 14:54:00
10:54 AM,46.0,25.0,44,30.44,10.0,Variable,5.8,-,N/A,,Clear,0,2012-03-07 15:54:00
11:54 AM,50.0,26.1,39,30.40,10.0,East,6.9,-,N/A,,Clear,90,2012-03-07 16:54:00
12:54 PM,53.1,26.1,35,30.36,10.0,Variable,5.8,17.3,N/A,,Clear,0,2012-03-07 17:54:00
1:54 PM,57.0,26.1,30,30.32,10.0,Variable,5.8,17.3,N/A,,Clear,0,2012-03-07 18:54:00
2:54 PM,59.0,27.0,29,30.29,10.0,SSE,12.7,21.9,N/A,,Clear,160,2012-03-07 19:54:00
3:54 PM,60.1,26.1,27,30.27,10.0,SSE,16.1,26.5,N/A,,Clear,150,2012-03-07 20:54:00
4:54 PM,59.0,27.0,29,30.26,10.0,SSE,18.4,25.3,N/A,,Clear,160,2012-03-07 21:54:00
5:54 PM,60.1,28.0,30,30.26,10.0,South,20.7,31.1,N/A,,Clear,170,2012-03-07 22:54:00
6:54 PM,59.0,28.0,31,30.25,10.0,SSE,20.7,28.8,N/A,,Clear,150,2012-03-07 23:54:00
7:54 PM,59.0,27.0,29,30.25,10.0,SSE,19.6,27.6,N/A,,Clear,160,2012-03-08 00:54:00
8:54 PM,59.0,28.9,32,30.23,10.0,South,18.4,29.9,N/A,,Clear,170,2012-03-08 01:54:00
9:54 PM,59.0,32.0,36,30.22,10.0,South,11.5,25.3,N/A,,Clear,180,2012-03-08 02:54:00
10:54 PM,59.0,34.0,39,30.23,10.0,Variable,5.8,-,N/A,,Clear,0,2012-03-08 03:54:00
11:54 PM,59.0,37.4,45,30.21,-9999.0,Calm,Calm,-,N/A,,Clear,0,2012-03-08 04:54:00